Location: Bohy
(49.9380°N, 13.5753°E)
Time: 00:20:02
(UTC+00:00)

Cosmos 1066 Rocket - Pass Details

Date: 19 May 2025
Orbit: 798 x 892 km, 81.2° (Epoch: 23 June)

Event Time Altitude Azimuth Distance (km) Brightness Sun altitude
Exits shadow 23:04:58 37° 197° (SSW) 1,295 4.7 -20.1°
Maximum altitude 23:07:18 83° 282° (WNW) 873 4.2 -20.1°
Drops below altitude 10° 23:13:05 10° 11° (N) 2,539 7.9 -20.0°
Sets 23:15:34 0° 12° (NNE) 3,492 9.0 -20.0°
